User: anonymous   Login
Location: Knowlton
(51.2333°N, 1.2667°E)
Time: 02:43:08
(UTC+00:00)
Language:

Exosat Rocket - Orbit

View from above orbital plane
View from above orbital plane
View from above satellite
View from above satellite

Ground track
Ground track

The orbit data is extracted from the following two-line orbital elements,

1 14096U 83051B   21169.56665137  .00000282  00000-0  49998-3 0  9999
2 14096  72.3001 267.1979 1093385  90.5573 282.0590 12.09742539680523
Epoch (UTC): 18 June 2021 13:35:58
Eccentricity: 0.1093385
inclination: 72.3001°
perigee height: 761 km
apogee height: 2514 km
right ascension of ascending node: 267.1979°
argument of perigee: 90.5573°
revolutions per day: 12.09742539
mean anomaly at epoch: 282.0590°
orbit number at epoch: 68052

The dashed part of the orbit path shows where the satellite is in the earth's shadow,  

DLR